Date String (YYYY-MM-DD hh:mm:ss) UTC,Instrument flags,Ambient pressure (hPa),Sample flow (lpm),Bypass flow (lpm),Sample temperature (°C),Ambient temperature (°C),ASC tube jacket temperature (°C),LED temperature (°C),Box temperature (°C),Sample RH (%),Span deviation,Mass concentration (μg/m³),Mass concentration (μg/m³),Mass concentration (μg/m³)
DateTimeUTC,F1_M11,P_M11,Q1_M11,Q2_M11,T1_M11,T2_M11,T3_M11,T4_M11,T5_M11,U1_M11,ZSPAN_M11,X0_M11,X2_M11,X1_M11
2021-09-09 11:00:00,,0830.7,5.00,0.00,30.1,29.1,00.0,39.2,31.8,14.3,0001.4,0035.33,0024.48,0022.78
2021-09-09 11:01:00,,0830.6,5.01,0.00,30.1,29.1,00.0,39.2,31.8,14.4,0000.9,0035.44,0024.50,0022.81
2021-09-09 11:02:00,,0830.6,4.99,0.00,30.1,29.1,00.0,39.2,31.9,14.4,0001.1,0035.21,0024.49,0022.80
2021-09-09 11:03:00,,0830.6,5.01,0.00,30.1,29.1,00.0,39.2,31.9,14.6,0001.6,0034.45,0024.48,0022.82
2021-09-09 11:04:00,,0830.7,5.00,0.00,30.1,29.1,00.0,39.2,31.8,14.5,0001.7,0034.53,0024.42,0022.79
2021-09-09 11:05:00,,0830.7,4.98,0.00,30.1,29.1,00.0,39.2,31.8,14.5,0001.4,0034.49,0024.46,0022.81
2021-09-09 11:06:00,,0830.7,5.02,0.00,30.1,29.1,00.0,39.2,31.9,14.9,0001.4,0034.30,0024.53,0022.88
2021-09-09 11:07:00,,0830.7,4.99,0.00,30.2,29.1,00.0,39.2,31.9,15.0,0001.5,0034.83,0024.59,0022.93
2021-09-09 11:08:00,,0830.7,4.99,0.00,30.2,29.2,00.0,39.3,31.9,15.1,0001.3,0034.99,0024.68,0022.97
2021-09-09 11:09:00,,0830.8,5.02,0.00,30.2,29.2,00.0,39.3,31.9,15.3,0001.8,0034.28,0024.60,0022.97
2021-09-09 11:10:00,,0830.8,4.99,0.00,30.2,29.2,00.0,39.3,31.9,15.3,0002.4,0034.07,0024.61,0023.01
2021-09-09 11:11:00,,0830.7,4.99,0.00,30.2,29.3,00.0,39.3,31.9,15.3,0002.6,0033.75,0024.63,0023.00
2021-09-09 11:12:00,,0830.7,5.01,0.00,30.2,29.3,00.0,39.3,31.9,15.2,0003.2,0034.12,0024.73,0023.05
2021-09-09 11:13:00,,0830.8,5.00,0.00,30.2,29.4,00.0,39.3,32.0,15.1,0003.1,0034.86,0024.70,0023.03
2021-09-09 11:14:00,,0830.8,5.00,0.00,30.2,29.4,00.0,39.3,32.0,14.9,0002.6,0035.11,0024.70,0022.99
2021-09-09 11:15:00,,0830.7,5.00,0.00,30.3,29.4,00.0,39.3,32.0,15.0,0002.1,0035.18,0024.68,0022.99
2021-09-09 11:16:00,,0830.8,5.00,0.00,30.3,29.4,00.0,39.4,32.0,15.2,0002.3,0036.18,0024.66,0022.98
2021-09-09 11:17:00,,0830.7,5.00,0.00,30.3,29.5,00.0,39.4,32.0,15.3,0002.4,0036.40,0024.58,0022.91
2021-09-09 11:18:00,,0830.7,5.01,0.00,30.3,29.5,00.0,39.4,32.0,15.3,0002.4,0036.04,0024.56,0022.87
2021-09-09 11:19:00,,0830.8,5.00,0.00,30.3,29.5,00.0,39.4,32.1,15.3,0002.4,0035.92,0024.51,0022.83
2021-09-09 11:20:00,,0830.8,5.01,0.00,30.3,29.5,00.0,39.4,32.1,15.2,0002.5,0036.17,0024.55,0022.82
2021-09-09 11:21:00,,0830.9,5.01,0.00,30.3,29.5,00.0,39.4,32.1,15.2,0002.2,0036.32,0024.52,0022.79
2021-09-09 11:22:00,,0830.8,4.99,0.00,30.4,29.5,00.0,39.4,32.1,15.3,0001.7,0036.31,0024.51,0022.80
2021-09-09 11:23:00,,0830.9,5.00,0.00,30.4,29.5,00.0,39.5,32.1,15.6,0001.5,0036.26,0024.52,0022.81
2021-09-09 11:24:00,,0830.8,5.00,0.00,30.4,29.5,00.0,39.5,32.1,15.4,0001.5,0035.95,0024.57,0022.86
2021-09-09 11:25:00,,0830.9,5.01,0.00,30.4,29.6,00.0,39.5,32.1,15.7,0001.7,0036.13,0024.63,0022.95
2021-09-09 11:26:00,,0830.8,5.00,0.00,30.4,29.6,00.0,39.5,32.2,15.7,0001.9,0035.88,0024.69,0023.00
2021-09-09 11:27:00,,0830.8,5.01,0.00,30.4,29.6,00.0,39.5,32.2,15.6,0002.0,0034.37,0024.75,0023.06
2021-09-09 11:28:00,,0830.7,4.99,0.00,30.4,29.6,00.0,39.5,32.2,15.4,0002.0,0034.05,0024.82,0023.15
2021-09-09 11:29:00,,0830.8,4.99,0.00,30.4,29.6,00.0,39.5,32.2,15.4,0001.9,0034.41,0024.87,0023.15
2021-09-09 11:30:00,,0830.9,5.02,0.00,30.4,28.6,00.0,39.5,32.0,15.3,0002.0,0034.79,0024.92,0023.20
2021-09-09 11:31:00,,0830.9,5.00,0.00,30.3,26.7,00.0,39.5,31.5,15.4,0001.9,0035.33,0024.95,0023.22
2021-09-09 11:32:00,,0830.8,5.00,0.00,30.1,26.5,00.0,39.4,31.4,15.6,0002.0,0035.44,0024.99,0023.24
2021-09-09 11:33:00,,0830.8,4.99,0.00,30.0,26.8,00.0,39.4,31.4,15.7,0002.0,0035.64,0025.02,0023.27
2021-09-09 11:34:00,,0830.8,5.00,0.00,30.0,27.2,00.0,39.3,31.4,15.7,0002.0,0035.88,0024.96,0023.25
2021-09-09 11:35:00,,0830.9,5.00,0.00,30.0,27.6,00.0,39.3,31.5,15.7,0001.9,0036.24,0025.05,0023.28
2021-09-09 11:36:00,,0830.9,4.99,0.00,29.9,27.9,00.0,39.3,31.5,15.7,0001.9,0036.64,0025.07,0023.27
2021-09-09 11:37:00,,0830.9,5.00,0.00,30.0,28.1,00.0,39.2,31.6,15.7,0002.1,0036.37,0024.98,0023.24
2021-09-09 11:38:00,,0830.9,5.00,0.00,30.0,28.3,00.0,39.2,31.6,15.7,0002.1,0036.71,0024.92,0023.19
2021-09-09 11:39:00,,0830.9,5.01,0.00,30.0,28.5,00.0,39.2,31.6,15.6,0002.3,0037.50,0024.85,0023.12
2021-09-09 11:40:00,,0831.0,4.99,0.00,30.0,28.6,00.0,39.2,31.7,15.6,0002.1,0037.11,0024.77,0023.11
2021-09-09 11:41:00,,0831.0,5.00,0.00,30.0,28.7,00.0,39.2,31.7,15.6,0002.1,0036.94,0024.73,0023.09
2021-09-09 11:42:00,,0831.0,5.00,0.00,30.0,28.7,00.0,39.2,31.7,15.6,0002.0,0037.31,0024.77,0023.09
2021-09-09 11:43:00,,0831.0,5.01,0.00,30.0,28.8,00.0,39.2,31.7,15.6,0001.9,0037.37,0024.83,0023.10
2021-09-09 11:44:00,,0831.1,5.00,0.00,30.0,28.9,00.0,39.2,31.7,15.5,0001.8,0037.75,0024.84,0023.08
2021-09-09 11:45:00,,0831.1,4.99,0.00,30.1,28.9,00.0,39.2,31.8,15.5,0002.0,0037.23,0024.84,0023.07
2021-09-09 11:46:00,,0831.1,4.99,0.00,30.1,28.9,00.0,39.2,31.8,15.5,0002.0,0037.19,0024.76,0023.01
2021-09-09 11:47:00,,0831.0,5.00,0.00,30.1,29.0,00.0,39.2,31.8,15.5,0001.9,0036.94,0024.70,0022.98
2021-09-09 11:48:00,,0831.0,5.01,0.00,30.1,29.0,00.0,39.2,31.9,15.5,0001.7,0037.51,0024.77,0022.98
2021-09-09 11:49:00,,0831.0,5.01,0.00,30.1,29.1,00.0,39.2,31.9,15.5,0001.2,0037.30,0024.84,0023.00
2021-09-09 11:50:00,,0831.0,5.00,0.00,30.1,29.1,00.0,39.2,31.9,15.8,0000.6,0036.44,0024.96,0023.05
2021-09-09 11:51:00,,0831.1,5.00,0.00,30.1,29.1,00.0,39.2,31.9,16.0,0000.6,0037.17,0025.06,0023.10
2021-09-09 11:52:00,,0831.1,4.98,0.00,30.1,29.2,00.0,39.2,31.9,15.9,0000.8,0038.58,0025.12,0023.11
2021-09-09 11:53:00,,0831.1,5.01,0.00,30.2,29.2,00.0,39.3,31.9,16.0,0000.9,0037.87,0025.12,0023.14
2021-09-09 11:54:00,,0831.0,4.99,0.00,30.2,29.2,00.0,39.3,31.9,15.8,0000.8,0038.54,0025.09,0023.15
2021-09-09 11:55:00,,0831.1,5.00,0.00,30.2,29.2,00.0,39.3,31.9,15.8,0000.9,0039.14,0025.09,0023.17
2021-09-09 11:56:00,,0831.0,4.99,0.00,30.2,29.2,00.0,39.3,31.9,15.8,0000.8,0039.39,0025.13,0023.21
2021-09-09 11:57:00,,0831.0,5.01,0.00,30.2,29.2,00.0,39.3,31.9,15.7,0001.0,0038.73,0025.12,0023.25
2021-09-09 11:58:00,,0831.0,5.00,0.00,30.2,29.3,00.0,39.3,31.9,15.8,0001.2,0038.93,0025.18,0023.28
2021-09-09 11:59:00,,0831.0,5.01,0.00,30.2,29.3,00.0,39.3,32.0,16.1,0001.3,0040.45,0025.28,0023.32
